Wind_Speed
8 9 9 8 7 6 5 6 7 7 8 8 10 12 12 10 8 8 10 12 12 9 5 5 4 3 2 3 5 12 22 31 36 40 32 24 30 26 22 17 14 13 11 15 15 11 12 16 14 15 18 12 6 4 7 7 5 6 4 5 5 3 2 2 5 5 3 3 3 1 2 6 1 3 1 2 5 3 3 3 2 4 2 3 5 7 8 8
10 10 10 9 7 6 6 7 7 7 7 8 10 11 11 9 6 7 9 12 14 15 10 6 7 7 5 4 2 5 13 28 39 35 30 30 31 24 19 15 12 11 9 12 16 16 13 9 10 14 11 5 5 6 5 5 6 5 3 5 3 4 2 2 4 4 3 5 4 1 3 4 2 2 0 2 1 2 3 3 4 5 5 5 6 7 8 7
12 12 11 10 8 8 7 7 7 6 7 8 11 11 10 8 6 7 8 9 11 17 18 6 7 8 7 7 6 3 7 22 29 23 31 34 29 25 21 14 11 9 6 7 11 16 15 8 11 13 8 5 5 5 6 5 4 4 4 5 1 5 3 1 2 3 4 7 6 3 2 3 0 2 2 4 2 2 1 3 2 3 6 7 8 9 10 7
13 12 10 9 8 8 7 7 7 6 8 10 11 11 10 9 8 9 9 9 7 10 19 15 2 6 7 8 5 3 5 12 13 17 31 33 29 26 19 13 9 6 4 6 9 14 16 13 14 11 7 6 5 4 7 5 2 4 3 5 4 5 5 0 0 2 2 5 6 3 3 3 1 1 3 5 3 2 3 5 4 5 7 6 9 11 11 7
12 11 10 9 8 8 8 7 7 8 10 11 12 13 14 13 12 12 11 9 7 5 12 20 17 7 2 5 6 3 4 6 7 21 29 29 29 24 17 12 7 7 7 10 11 12 12 10 10 8 7 5 6 5 5 6 4 5 3 3 4 4 5 2 2 1 1 4 4 3 3 1 1 3 2 6 3 4 5 5 7 7 7 7 8 11 11 5
11 12 11 10 9 9 9 8 8 9 10 10 11 12 13 14 13 13 14 12 7 3 5 11 19 22 18 9 6 5 7 4 10 24 26 26 27 22 16 12 11 12 12 15 15 14 10 9 9 7 5 4 7 6 3 5 5 5 3 4 2 3 5 2 2 3 2 6 4 2 1 1 2 1 1 5 4 6 6 6 8 8 9 8 8 9 8 4
14 14 13 12 11 10 9 8 8 8 8 8 7 7 8 9 10 9 13 17 8 0 2 3 7 14 20 24 24 19 11 2 15 23 23 24 24 21 15 13 14 16 18 20 19 14 8 11 13 6 5 6 6 6 4 6 7 7 3 2 3 4 4 2 1 3 5 6 1 1 1 2 3 1 0 1 5 6 6 8 9 10 10 8 8 8 6 4
16 16 15 13 13 11 10 8 7 6 6 6 5 6 8 8 10 9 10 19 17 5 2 3 1 2 3 11 17 15 7 6 20 22 20 20 22 23 16 14 15 18 23 21 11 7 5 11 10 4 6 5 3 4 4 8 8 6 4 2 1 2 2 0 3 4 4 4 1 2 2 2 4 2 0 4 7 6 7 8 9 9 8 8 7 8 6 3
16 16 15 15 14 12 10 8 7 6 6 5 5 7 9 9 11 12 9 14 22 19 7 4 5 3 3 2 4 8 4 11 19 19 18 18 21 24 22 21 19 22 26 22 12 7 3 5 3 4 7 4 5 3 1 5 4 2 5 4 3 3 1 1 3 2 1 1 2 4 2 5 3 1 1 6 7 7 5 5 7 6 7 8 7 7 4 3
16 15 15 14 13 13 11 9 7 6 6 6 7 8 8 8 10 12 8 7 13 20 21 13 5 3 6 4 6 7 6 14 18 16 15 16 20 25 28 27 24 26 25 22 21 13 6 10 10 10 10 5 5 3 3 5 4 3 6 5 5 4 0 1 2 1 1 1 1 3 2 5 4 2 2 6 7 5 4 5 6 4 6 7 7 6 3 3
14 15 14 13 12 12 11 10 7 6 6 7 7 8 6 6 7 8 8 7 6 7 11 14 15 20 26 17 10 6 7 15 19 16 12 13 20 24 27 27 26 27 22 20 20 13 10 15 16 11 6 3 4 6 6 5 6 6 7 6 5 3 3 4 1 2 1 0 2 5 1 4 4 1 4 7 6 2 2 6 7 4 6 6 6 6 3 4
14 14 14 12 11 9 10 10 6 4 4 5 5 5 6 6 6 6 7 8 8 7 2 1 3 11 26 23 9 3 9 15 19 16 10 10 17 20 22 24 26 26 23 20 16 11 6 8 11 9 3 4 5 5 3 3 6 5 5 6 4 5 5 5 2 1 1 1 3 4 2 5 3 4 7 7 3 0 1 5 7 5 5 5 6 5 4 5
12 13 12 11 9 6 8 8 6 7 6 6 4 3 3 6 8 7 6 6 7 10 10 8 4 3 12 11 5 8 12 16 18 13 8 9 12 16 17 19 22 22 23 22 18 17 14 14 21 13 4 7 3 2 5 3 4 2 3 6 2 6 5 4 3 2 1 1 2 3 2 5 6 7 8 6 2 0 3 6 5 5 5 5 5 5 4 4
11 11 11 11 8 5 6 6 10 12 11 11 8 5 2 4 8 8 8 7 6 9 14 17 13 11 12 4 2 12 14 15 18 14 11 10 9 11 14 16 18 18 20 20 18 19 20 25 29 14 3 6 3 4 5 4 3 2 2 3 3 4 2 6 4 3 1 1 4 5 1 5 7 8 7 5 3 3 4 6 5 5 5 5 5 4 4 4
10 10 11 11 8 5 6 11 16 16 16 17 15 11 4 3 5 7 8 8 8 7 9 12 10 10 10 3 2 11 15 16 19 19 15 12 11 10 10 12 14 14 16 16 15 16 19 23 21 8 3 5 5 6 4 3 4 3 2 3 4 3 1 7 3 4 1 3 3 5 1 5 6 8 7 4 2 3 4 6 5 5 4 5 5 3 3 5
11 10 11 11 8 7 10 14 15 14 16 17 20 20 12 2 1 5 6 8 12 9 6 8 8 9 7 1 4 9 12 14 18 18 12 11 13 12 10 7 7 9 12 13 11 11 18 20 11 4 4 6 6 5 3 4 4 3 3 1 3 3 3 4 1 2 1 2 2 1 2 3 3 5 6 3 3 3 5 7 6 5 5 5 5 3 3 5
12 11 11 12 9 9 11 11 9 9 11 13 15 20 23 14 2 3 2 2 6 9 10 10 7 10 7 2 3 6 8 13 16 17 12 9 12 14 12 6 4 4 6 10 11 8 12 11 3 2 6 5 4 3 3 4 3 4 4 2 2 2 1 2 2 3 5 3 3 1 3 5 5 6 7 5 4 4 5 7 6 5 5 5 4 3 4 4
12 11 11 12 6 7 7 5 3 3 6 8 8 11 21 25 17 12 6 2 1 4 8 13 10 8 5 5 4 8 12 13 14 17 13 8 9 14 14 8 5 4 2 6 11 9 7 5 3 3 5 6 6 6 3 1 1 0 2 1 3 3 1 3 3 3 6 5 3 1 3 8 8 8 7 6 4 5 7 6 5 5 5 5 4 4 4 4
12 11 10 12 7 4 5 5 3 2 3 4 5 3 5 12 18 24 27 18 7 4 3 8 7 5 2 5 7 11 11 10 12 17 18 12 7 9 13 11 6 5 5 4 7 7 4 4 6 5 4 6 5 4 3 4 4 4 3 2 2 4 3 4 4 3 5 4 4 1 3 7 8 8 7 7 4 5 7 6 5 5 4 4 4 4 4 4
12 11 10 12 11 4 2 4 6 6 4 5 5 4 1 2 7 11 20 20 9 5 6 2 3 4 2 4 9 12 7 6 11 19 25 17 7 6 11 10 7 7 6 2 3 5 4 7 6 2 2 5 4 3 2 4 3 3 3 2 3 2 4 5 3 4 5 4 4 2 4 7 8 9 7 6 4 5 7 6 6 6 4 4 4 5 5 5
12 11 10 11 13 12 9 5 2 3 4 5 3 2 1 2 5 1 3 9 7 7 9 3 2 4 2 3 10 11 3 5 14 23 29 17 5 5 8 7 7 7 4 2 1 4 5 8 4 2 5 5 4 4 2 4 2 1 2 2 2 1 4 5 2 4 6 4 4 3 7 10 9 8 8 4 3 5 7 6 6 6 5 5 4 6 6 5
13 11 9 9 12 16 16 15 15 11 7 6 9 10 5 5 9 8 4 6 5 7 7 4 5 3 2 2 10 10 2 6 13 20 27 19 7 5 4 6 9 4 5 4 2 5 7 5 4 5 4 1 2 5 3 5 4 3 0 0 2 3 5 6 3 5 7 3 4 5 7 10 9 7 7 4 5 5 6 7 6 6 5 5 4 6 6 5
13 11 8 7 8 12 14 15 15 15 16 16 16 13 10 10 11 7 4 6 2 4 4 4 5 4 5 5 10 10 5 6 5 12 23 16 6 5 3 7 9 4 7 7 4 5 5 2 5 2 1 3 4 6 6 5 4 4 3 3 2 4 3 4 4 7 8 1 3 5 4 6 7 6 6 3 4 4 4 4 5 4 5 6 5 5 5 5
13 11 8 5 5 5 6 8 7 10 15 16 17 14 12 10 7 4 3 4 2 1 1 1 2 3 3 3 10 8 3 4 1 8 19 12 2 3 4 5 6 6 6 8 9 9 4 3 3 3 5 4 2 5 6 5 3 3 2 4 1 4 2 4 5 8 7 1 2 5 3 4 5 5 5 4 2 4 4 5 6 5 5 5 5 5 5 5
13 11 8 5 3 1 1 3 5 9 10 11 12 11 10 6 3 3 3 4 4 2 1 0 1 3 3 4 10 4 2 3 1 5 12 9 3 2 3 2 4 4 1 5 10 9 3 3 1 3 5 5 5 4 4 3 2 4 0 4 2 3 5 5 6 6 4 3 4 6 5 4 6 4 6 5 5 5 5 6 7 7 6 5 5 7 6 5
13 11 9 6 2 0 1 0 4 6 5 5 8 8 7 5 3 3 4 5 4 4 4 2 1 5 6 7 9 2 4 4 2 5 10 10 5 3 4 3 3 3 3 2 5 4 1 3 3 4 3 5 6 3 0 3 4 2 1 4 3 2 2 3 5 3 3 2 4 5 4 3 6 5 6 5 6 7 6 6 7 7 6 6 5 6 6 6
12 12 10 6 4 1 2 3 3 2 1 3 6 6 5 4 3 2 3 5 3 2 4 3 2 5 6 7 6 3 3 5 2 7 11 11 7 2 5 4 2 2 2 3 4 1 2 5 7 6 5 5 5 2 1 4 4 1 2 5 3 1 1 2 3 3 1 2 4 5 4 1 4 5 6 4 5 7 7 7 7 6 6 6 6 6 6 6
12 12 10 7 4 3 1 4 4 3 4 5 6 5 3 2 0 2 5 4 2 1 1 3 3 4 5 7 8 6 1 4 2 5 9 12 9 3 6 3 3 1 1 4 3 1 2 4 5 5 5 5 2 2 2 4 1 3 3 4 1 2 2 1 3 2 1 1 3 6 3 1 4 6 5 4 4 6 6 6 7 7 6 7 7 7 7 6
12 12 10 7 4 4 3 3 4 5 6 6 5 3 2 1 1 4 6 3 2 1 1 2 3 4 6 7 8 5 3 3 3 5 8 11 10 6 5 3 6 4 2 5 5 2 1 0 2 2 4 2 3 4 4 4 0 1 4 3 1 2 2 2 4 2 2 4 1 6 3 2 4 6 4 2 2 5 6 6 6 6 6 6 6 7 7 6
12 13 11 7 2 2 2 3 5 7 6 5 4 2 0 2 4 5 3 1 0 1 1 2 3 4 6 6 6 6 6 4 2 5 5 5 8 8 4 1 5 6 5 6 5 0 2 1 2 2 1 2 3 3 3 4 2 1 4 4 3 3 3 3 2 3 4 3 3 5 2 2 2 5 3 3 4 5 4 4 6 6 6 6 6 6 6 6
12 14 13 8 4 2 2 4 7 7 4 3 3 1 2 2 5 6 2 1 0 2 3 4 3 4 7 5 4 6 5 5 5 6 5 4 8 8 4 2 3 5 4 5 5 3 4 3 1 2 1 0 2 2 0 1 1 2 3 3 2 3 3 3 4 5 4 2 4 3 1 2 2 5 5 5 6 5 5 4 5 6 6 6 6 6 6 6
11 14 14 11 7 5 4 5 6 5 3 2 1 2 4 2 4 3 1 3 1 1 2 2 3 4 5 3 4 5 4 5 5 5 3 3 5 5 4 3 0 3 5 3 4 4 2 2 3 4 1 1 3 2 2 3 3 4 3 4 3 2 4 3 4 3 1 4 3 1 1 0 4 7 6 5 7 7 6 6 6 6 6 6 6 7 6 5
9 12 14 12 9 6 6 6 4 4 2 2 2 4 6 5 1 1 2 2 1 1 0 0 2 2 2 4 5 5 2 3 4 4 2 2 4 3 3 2 1 1 2 1 2 4 3 4 5 4 2 2 4 3 2 3 3 4 2 3 3 2 4 3 4 3 2 4 3 1 0 2 4 4 5 7 7 7 6 6 6 6 6 7 7 7 6 6
7 10 13 13 10 7 5 4 3 3 1 1 3 4 6 4 1 1 2 3 1 2 1 1 2 3 4 4 2 3 2 1 3 4 3 3 5 4 4 5 4 3 2 2 2 2 2 3 4 3 2 3 4 2 2 1 2 3 1 3 3 3 3 1 3 1 3 5 4 2 1 2 2 3 5 7 6 5 5 5 5 5 6 6 7 7 7 8
4 7 13 14 13 9 5 3 3 2 1 2 5 5 5 2 3 2 2 4 2 1 1 1 3 5 5 4 2 1 1 1 3 5 5 4 3 2 3 4 5 3 3 2 1 1 2 2 3 2 2 2 2 1 2 3 0 2 1 3 2 2 3 1 2 3 1 3 4 2 2 4 3 3 5 3 5 6 5 6 5 7 7 5 6 8 7 7
2 4 11 15 14 10 6 3 2 3 2 4 7 4 2 3 3 3 3 2 2 3 2 1 4 5 3 4 3 3 1 1 3 4 4 3 2 1 1 2 3 3 2 3 1 1 2 2 3 3 2 2 0 2 0 1 1 2 2 2 1 3 5 3 0 1 4 1 4 2 3 5 3 3 5 6 6 7 6 6 6 7 7 6 6 8 7 6
1 2 7 14 15 10 6 4 3 5 3 7 6 2 2 2 2 3 1 1 1 3 4 2 1 2 1 1 3 4 2 2 2 3 2 1 1 1 0 2 1 1 1 2 1 0 1 2 4 2 1 2 1 1 1 1 1 2 2 1 2 3 4 3 1 4 5 1 4 3 3 6 3 2 5 5 6 8 7 7 7 7 7 6 7 8 7 8
1 2 4 14 16 9 6 4 4 4 5 7 4 2 1 0 1 1 0 1 1 3 5 3 1 0 2 2 1 4 3 2 2 4 1 1 0 2 2 1 0 1 2 1 2 1 1 2 4 0 1 4 3 1 3 3 0 2 2 1 1 3 1 2 2 2 3 3 5 5 4 4 3 3 3 3 7 8 8 7 6 7 8 7 7 8 8 8
2 1 2 12 15 8 7 5 3 4 6 5 3 2 1 1 1 1 2 1 1 2 2 2 1 2 2 3 1 2 2 1 1 2 1 0 1 2 2 0 0 1 3 2 2 1 0 1 3 3 1 3 4 2 1 3 3 2 3 2 2 3 2 1 2 1 0 2 4 5 5 3 5 5 5 6 8 8 7 6 5 8 8 7 7 7 8 8
2 2 1 11 14 7 7 7 5 7 6 3 3 2 1 1 2 2 2 1 1 1 1 3 3 2 2 3 1 1 1 1 2 1 1 0 1 1 1 1 0 1 3 3 3 1 1 1 3 4 3 2 1 0 2 2 1 2 3 3 2 2 2 1 1 1 3 2 1 2 5 6 6 4 6 7 7 7 7 6 6 7 7 7 7 7 7 7
3 3 2 10 15 7 5 9 7 5 4 3 2 1 1 1 1 2 2 1 1 1 1 4 4 3 3 2 1 2 1 2 2 1 1 1 1 1 1 1 1 1 1 3 3 0 0 1 2 3 4 1 2 2 1 2 1 0 1 1 2 2 2 3 2 3 1 2 3 2 4 9 6 3 5 6 6 6 7 6 6 7 8 8 7 7 8 8
4 2 2 10 15 7 5 7 3 3 4 2 1 1 1 2 2 1 2 1 1 1 1 3 3 2 3 2 1 2 2 1 1 1 1 2 1 2 1 1 2 1 2 1 1 1 1 3 0 3 3 3 4 3 0 1 1 2 1 0 2 3 4 4 2 3 0 1 1 3 2 8 7 4 5 6 6 6 6 5 6 8 8 8 8 9 9 8
3 1 2 11 15 5 7 6 3 4 3 1 1 1 1 2 2 0 1 1 0 0 2 2 1 1 1 1 2 2 1 2 2 1 1 2 1 2 1 1 1 1 2 1 1 1 1 3 2 4 3 3 4 3 1 2 1 1 2 2 2 2 2 4 4 3 2 3 3 3 2 8 7 3 4 5 5 6 6 6 7 8 8 8 9 9 9 8
1 2 2 10 12 2 5 3 1 2 1 0 2 2 1 1 1 1 0 1 0 1 2 1 0 1 1 1 3 2 1 1 2 0 1 3 1 1 1 2 1 1 1 1 1 0 1 1 2 3 5 6 5 5 4 3 1 2 3 2 2 3 5 4 1 2 0 5 6 4 4 8 6 4 3 4 4 6 8 7 7 7 8 8 9 9 8 8
1 1 2 8 11 7 4 3 6 5 3 3 4 1 0 1 1 1 2 1 0 1 2 1 1 3 3 2 4 2 1 1 1 0 0 2 1 2 2 3 1 2 2 2 1 1 1 1 2 3 1 2 2 3 3 2 1 2 1 2 3 4 6 3 1 3 2 4 5 5 6 7 7 7 6 6 5 7 10 8 6 6 8 8 8 8 8 7
2 1 2 5 8 8 3 1 5 6 5 5 4 2 2 2 1 1 2 1 0 1 1 1 1 3 3 2 3 2 2 2 1 1 1 2 2 1 1 3 1 2 1 0 1 2 2 1 3 5 5 5 5 5 4 2 1 3 3 3 5 4 5 5 4 3 4 3 3 8 8 8 14 14 9 7 7 7 10 10 9 8 8 9 8 8 9 8
2 1 0 1 3 4 4 3 4 5 4 4 4 3 4 3 1 0 1 1 0 1 1 1 2 2 2 3 3 1 1 2 3 0 2 2 1 1 2 1 2 1 1 1 1 3 3 2 3 5 7 8 7 6 3 2 3 6 6 5 7 7 5 6 5 6 5 4 4 9 6 7 16 16 11 10 10 9 10 10 9 8 8 9 9 9 10 10
1 2 2 1 1 1 2 2 3 5 4 4 3 3 4 4 2 2 2 0 1 1 1 1 2 4 5 6 4 2 1 2 2 2 2 1 1 2 3 1 1 2 2 1 2 3 4 3 3 4 6 9 8 9 5 3 5 6 7 9 9 8 10 12 13 9 8 7 10 5 3 8 15 16 14 15 12 10 10 9 8 8 9 9 9 9 10 11
2 2 0 2 1 3 1 1 4 6 5 4 3 2 5 6 6 4 2 2 1 2 2 2 5 6 6 5 4 4 3 2 2 4 3 3 2 2 0 1 1 2 2 2 2 1 3 3 2 1 5 9 10 9 6 5 5 6 10 12 10 10 14 15 14 10 10 13 16 11 9 14 18 18 18 18 14 9 9 9 8 9 10 9 8 9 10 10
1 2 1 2 3 1 0 2 4 5 3 2 2 2 4 7 7 4 2 5 3 2 3 4 6 5 6 5 5 4 7 7 3 3 5 5 2 3 3 3 3 2 2 1 1 2 0 2 0 3 4 8 7 5 1 4 5 8 14 12 10 10 12 13 12 8 8 13 16 13 13 16 19 16 14 14 12 8 8 10 10 9 9 8 8 9 10 10
2 1 2 4 3 1 1 2 3 4 2 1 3 3 3 7 8 5 2 4 5 6 7 7 5 3 4 4 5 6 8 7 4 3 6 6 3 3 2 2 6 5 1 2 1 1 1 2 1 4 3 6 4 5 5 4 5 9 17 14 11 11 8 8 8 8 10 11 9 6 7 13 15 8 5 9 9 7 9 11 10 9 8 7 8 9 10 10
2 1 1 5 3 1 0 1 2 2 2 3 3 4 3 4 6 6 3 1 2 4 6 8 7 5 4 4 9 9 6 7 5 2 4 4 4 3 2 3 6 6 5 5 2 1 3 2 1 2 1 6 5 4 5 7 6 7 11 8 9 11 7 5 6 8 11 9 5 6 9 10 7 2 4 8 8 7 10 10 8 9 8 8 9 10 10 11
Wind_Direction
88 88 87 85 81 74 64 58 62 68 69 59 40 30 21 29 43 45 43 37 30 14 329 262 217 194 158 109 75 51 37 42 45 37 36 9 354 1 358 356 355 2 24 38 61 74 55 49 38 55 65 48 19 341 15 28 30 51 65 71 94 131 122 172 183 184 137 145 210 289 154 140 167 310 300 53 50 59 17 9 346 336 294 230 252 280 311 327
83 83 82 79 75 71 70 73 79 78 69 47 31 23 19 29 42 45 43 38 35 26 6 266 234 218 202 186 165 54 25 34 38 28 16 3 4 10 5 9 6 6 27 44 54 59 63 34 18 54 57 26 7 359 12 20 35 67 95 77 105 176 164 185 176 181 138 145 170 133 146 125 126 255 79 89 12 37 38 323 339 343 302 300 297 303 330 330
83 81 79 75 73 71 76 79 78 72 53 34 26 23 24 30 32 30 26 32 38 31 21 346 235 224 214 220 238 284 332 25 36 12 359 3 8 9 6 12 9 9 33 55 58 66 78 61 47 66 64 45 17 8 36 16 26 66 92 80 158 189 147 253 147 144 166 151 136 136 150 81 69 237 94 137 160 57 101 264 332 324 285 299 306 315 333 326
84 80 77 73 73 72 73 72 64 55 37 27 28 34 36 33 29 20 13 16 24 29 27 30 83 218 219 221 240 280 317 28 32 346 353 2 6 7 7 13 20 38 78 89 86 90 90 71 56 65 75 52 350 15 41 358 36 61 69 110 175 172 111 298 321 88 164 143 139 156 107 81 273 12 94 148 136 337 255 230 215 232 257 270 289 307 321 314
82 77 75 71 70 67 65 60 48 38 31 34 46 54 55 50 45 35 24 8 359 14 32 46 60 75 167 228 233 257 8 49 343 340 354 1 6 6 9 24 57 82 105 112 100 97 87 60 48 51 66 44 349 27 23 346 69 74 27 93 153 151 116 225 276 60 151 110 106 107 94 139 279 19 107 148 163 244 235 221 210 218 239 248 275 297 307 306
80 76 73 66 61 58 53 46 36 32 34 46 63 66 61 52 45 41 34 19 359 353 34 58 62 67 73 79 129 108 69 91 320 340 354 0 7 9 17 43 85 98 109 108 87 78 67 50 59 55 61 55 31 49 12 345 59 94 42 29 46 119 124 201 318 25 99 92 82 111 122 357 56 2 176 139 183 226 225 215 212 228 245 259 281 283 288 298
79 71 65 57 50 47 41 37 32 33 39 51 69 64 49 35 31 33 35 33 26 4 69 74 61 71 75 73 80 78 79 67 331 343 354 3 11 16 30 57 82 101 98 82 74 78 71 67 79 80 79 77 57 69 72 40 56 84 87 25 28 84 113 181 106 60 84 95 84 211 84 42 109 168 112 171 233 246 246 231 230 249 266 285 289 273 275 287
72 62 55 47 42 39 34 33 30 29 32 47 63 42 29 29 33 30 39 44 44 58 175 198 115 87 68 66 72 67 66 338 338 347 357 8 21 27 43 60 72 92 81 63 68 103 84 74 92 118 78 67 93 111 95 64 50 68 111 157 82 80 113 146 91 74 86 98 42 81 68 256 193 155 96 239 248 252 245 243 256 274 295 301 283 270 280 293
64 55 48 41 37 33 30 29 26 24 25 44 45 21 24 36 39 30 34 53 53 56 66 194 216 285 295 204 96 65 15 337 345 352 1 13 27 38 50 55 62 78 71 54 57 96 103 82 98 125 113 107 93 96 211 79 54 89 126 141 127 119 175 80 76 56 76 67 38 74 351 286 262 2 271 242 239 246 254 267 287 302 302 293 273 271 290 300
57 47 40 36 31 27 24 24 25 29 30 36 27 19 28 37 36 28 28 58 62 63 65 77 115 102 99 131 92 72 332 346 2 0 5 18 32 45 51 50 57 70 68 53 52 61 85 111 118 111 112 113 85 23 350 97 112 129 116 105 104 120 239 47 103 285 332 340 52 117 244 289 318 354 274 259 246 246 277 286 304 308 274 268 265 281 308 288
43 34 31 28 27 22 17 20 27 40 40 35 29 31 40 40 40 40 51 64 65 67 71 76 80 79 77 74 79 79 342 0 12 7 13 28 38 44 46 47 54 61 64 55 47 53 88 114 119 111 97 86 91 48 36 103 119 120 116 82 50 63 33 24 74 251 334 308 126 125 202 305 341 352 228 251 256 242 257 277 305 298 259 256 263 290 307 281
25 20 21 22 24 20 15 17 31 55 47 35 28 30 48 61 69 69 66 62 49 35 11 155 94 72 65 61 71 52 3 11 12 13 21 35 45 47 45 50 54 57 64 60 45 51 103 138 107 89 91 119 105 70 87 127 107 120 111 88 25 22 36 2 316 260 5 229 171 120 9 325 307 243 239 249 253 20 295 287 306 296 269 266 273 301 303 289
9 12 15 18 25 30 18 19 55 78 66 48 29 18 60 76 73 73 62 53 52 52 63 85 123 118 64 58 44 25 16 12 14 24 39 42 50 54 53 56 59 60 66 70 62 66 87 102 94 91 91 103 107 112 130 95 89 135 56 91 57 11 10 333 340 337 314 194 163 110 341 297 268 253 255 258 225 97 306 294 307 311 297 281 288 313 308 309
5 13 15 19 32 46 34 62 95 92 77 63 49 39 82 101 76 71 65 59 62 69 81 88 95 90 75 90 32 25 15 15 23 29 35 39 47 57 59 61 64 67 72 76 72 73 85 87 84 87 70 83 109 100 92 44 55 103 30 48 49 52 315 303 346 27 351 204 90 88 195 261 273 272 259 252 194 159 271 284 300 309 295 280 296 314 308 321
12 15 18 25 43 64 83 106 106 91 76 63 53 43 39 135 91 67 65 67 59 61 87 86 86 86 76 95 39 16 11 20 23 18 17 26 34 34 40 57 62 66 76 77 73 70 77 77 70 68 21 22 55 71 55 12 24 45 58 336 356 80 302 304 327 68 37 279 50 85 225 267 273 272 261 251 173 164 248 276 293 300 284 271 287 306 311 322
19 20 23 31 54 94 118 118 104 86 73 61 54 47 41 65 150 77 77 77 62 54 72 60 65 91 89 76 359 4 9 9 5 10 15 22 26 15 13 48 58 64 81 74 72 63 58 66 66 62 48 14 38 65 43 32 8 357 78 97 335 35 6 318 315 45 356 288 338 92 233 278 272 280 289 274 196 193 249 273 286 287 271 258 273 304 316 321
24 25 27 33 64 120 131 122 105 84 68 63 62 53 53 55 68 169 187 160 60 51 63 43 52 92 75 359 358 350 343 345 353 10 19 22 25 20 24 48 26 41 87 53 40 31 33 51 72 63 56 35 34 55 47 27 335 329 28 71 330 350 338 314 298 338 9 24 319 282 214 252 268 295 305 276 216 205 241 264 273 269 267 268 288 323 314 313
27 29 31 32 62 144 156 152 134 73 51 58 63 59 64 62 65 74 62 175 261 6 46 20 28 89 40 351 344 306 310 332 354 10 16 20 24 24 30 38 2 4 59 23 24 23 15 30 58 66 40 24 27 40 78 129 201 257 359 41 336 318 284 307 280 321 9 8 319 325 248 266 284 301 301 275 228 202 235 255 268 273 281 286 309 318 302 305
28 30 35 30 41 152 200 217 234 329 344 8 14 11 62 55 59 58 49 58 60 25 59 350 9 105 328 323 317 307 314 342 4 13 14 10 3 17 26 27 22 42 54 14 10 16 25 38 40 56 19 360 6 32 117 175 166 171 189 162 256 289 288 277 265 303 357 342 300 274 264 280 294 297 295 285 247 208 251 280 283 287 301 299 312 305 290 295
28 31 39 34 39 79 171 229 257 276 290 299 307 335 353 13 40 36 33 50 62 67 96 340 11 88 7 316 325 335 338 4 23 16 11 2 342 10 16 12 25 51 51 3 337 356 54 69 45 65 321 307 290 291 226 198 181 169 160 188 232 254 288 272 268 316 351 344 278 263 305 292 287 284 280 282 250 216 255 280 279 277 288 289 294 292 284 275
29 31 44 46 52 66 69 59 2 277 262 268 265 49 137 134 81 149 2 51 50 54 77 50 50 77 18 317 343 356 349 12 21 12 9 4 347 21 4 5 40 40 7 313 319 355 54 74 27 269 239 260 278 302 239 154 112 119 169 224 294 324 285 273 257 314 359 7 277 350 341 301 293 287 276 268 213 217 233 242 258 253 256 275 271 275 279 276
28 31 47 57 63 69 68 63 60 73 99 110 104 94 116 131 114 141 142 84 35 31 66 49 49 43 340 3 2 2 24 24 12 2 5 7 17 44 9 32 61 45 340 359 47 25 49 61 324 280 236 223 6 1 59 109 83 36 67 112 349 332 300 295 289 323 358 10 282 347 344 302 299 294 282 253 207 233 231 216 227 221 234 267 263 269 284 298
27 29 45 60 70 74 73 68 64 71 83 94 98 99 111 114 122 134 100 99 72 2 30 30 49 16 352 26 7 5 45 41 8 342 356 5 24 60 70 51 56 44 14 33 82 81 67 1 309 290 103 57 16 8 45 69 57 44 46 63 331 323 346 305 302 334 341 343 275 316 321 298 311 322 314 282 222 270 285 247 249 222 218 245 255 265 273 285
26 28 40 59 78 82 70 61 59 67 77 91 99 109 125 123 126 129 85 87 78 4 32 40 121 56 10 5 354 360 65 53 97 331 353 14 50 41 72 77 61 48 35 54 79 89 100 274 302 67 58 69 61 11 39 60 23 359 54 98 2 313 295 248 284 327 335 24 329 336 352 314 331 344 314 320 334 309 338 332 295 276 258 270 292 286 265 258
24 27 34 47 76 119 42 41 69 84 83 92 105 119 130 126 131 130 102 64 28 318 358 61 149 40 5 352 350 346 120 44 74 322 351 25 39 29 72 88 77 62 33 68 74 84 92 281 334 59 36 67 90 33 32 85 33 338 282 138 156 261 250 266 305 331 8 34 351 21 40 302 319 330 278 312 344 308 330 337 292 284 293 302 300 285 281 274
19 23 29 36 54 170 240 75 93 99 84 88 117 137 136 118 97 110 106 64 24 314 352 6 45 8 348 350 347 352 80 12 322 1 10 21 15 106 79 357 56 98 189 141 78 91 45 352 46 76 66 59 65 51 292 119 80 13 200 158 152 185 232 306 334 7 54 350 319 43 82 268 314 321 273 304 329 302 314 316 290 289 293 293 283 275 285 285
16 17 24 30 43 30 246 197 154 129 117 133 136 140 142 125 79 73 76 48 14 308 346 330 338 4 339 342 355 89 70 318 317 27 22 17 358 82 70 10 43 64 191 116 57 41 350 1 22 39 60 58 47 16 253 136 99 350 164 136 133 120 116 336 19 51 64 288 331 19 82 200 296 283 271 307 325 313 318 311 304 305 290 287 287 281 278 268
18 16 20 25 39 45 97 167 160 134 139 155 148 138 148 151 52 59 81 69 342 329 4 306 327 352 326 350 22 80 107 312 41 2 4 29 18 46 76 74 131 122 282 111 105 277 5 12 7 20 41 50 42 277 221 146 94 276 173 139 179 155 142 118 64 46 306 48 352 327 16 78 273 275 302 346 339 311 303 289 294 301 292 289 288 284 277 266
21 19 20 26 48 57 75 152 150 127 135 146 139 138 156 124 61 58 77 105 310 351 195 316 343 333 337 1 15 35 13 13 75 324 348 34 26 44 88 134 135 113 27 90 127 191 33 251 200 95 54 6 267 250 193 155 290 265 138 107 29 67 82 74 71 65 22 52 308 286 343 41 278 285 314 353 294 270 267 267 273 279 283 280 274 275 274 272
21 22 24 27 51 75 94 118 120 128 135 137 138 141 109 63 66 61 53 139 4 311 261 9 358 332 9 25 356 4 25 7 340 344 1 26 13 32 79 173 110 92 28 45 77 97 317 281 195 114 73 258 267 272 197 181 230 85 85 51 25 23 44 57 38 71 62 13 264 260 328 61 291 284 254 215 220 213 211 253 273 281 285 274 262 260 261 264
16 19 23 29 42 58 124 113 116 135 135 128 147 58 49 40 63 89 106 258 103 323 1 22 352 2 28 45 359 353 16 347 337 15 24 7 7 17 30 19 56 63 23 18 29 351 345 5 296 275 290 11 5 342 66 101 21 71 76 65 52 334 16 34 353 33 68 299 268 261 321 101 206 264 247 232 237 211 185 207 241 263 273 270 266 259 252 252
15 18 20 27 40 49 100 124 129 134 119 119 135 54 80 45 26 94 262 329 353 313 23 354 323 16 19 33 24 344 341 347 360 45 47 24 35 24 26 42 30 29 15 342 354 355 345 334 307 308 318 59 29 356 4 12 31 64 66 62 64 339 12 18 331 8 40 258 259 240 357 162 228 245 244 244 245 227 207 201 208 226 247 259 265 261 260 261
18 23 24 28 37 50 87 114 128 125 113 108 75 51 78 80 41 203 279 333 40 293 37 344 317 4 15 27 17 337 345 349 352 36 69 108 69 27 5 52 111 59 19 327 3 8 345 311 330 350 338 23 57 57 7 329 349 25 42 59 71 63 41 352 301 337 303 275 272 228 266 289 279 266 230 230 238 230 224 223 216 219 234 253 264 270 279 280
23 29 28 32 38 46 74 95 109 114 97 67 69 50 63 77 170 184 280 247 227 332 19 65 342 12 42 49 342 318 42 16 341 24 22 37 53 13 338 2 26 58 79 72 60 49 32 322 341 19 331 3 49 82 131 202 318 319 211 126 97 111 104 256 253 252 281 293 294 282 241 215 255 285 230 227 258 275 263 261 264 259 253 261 281 286 283 280
24 32 28 29 31 34 46 66 93 76 4 62 65 62 87 141 211 166 201 226 221 340 330 37 56 49 17 356 317 328 98 299 6 41 26 37 72 19 348 330 348 42 83 69 13 49 80 269 291 333 315 36 37 320 128 124 298 275 176 81 66 146 132 128 194 184 206 317 301 274 231 218 217 276 285 298 314 308 298 299 302 287 282 300 301 285 275 274
24 38 28 24 21 21 28 46 52 3 7 82 66 60 138 193 197 164 177 172 147 153 141 41 59 69 359 324 339 3 24 302 21 49 29 46 146 212 357 277 314 30 81 100 74 353 46 273 293 340 353 51 99 273 22 122 280 359 41 50 193 156 118 101 274 11 66 28 285 286 280 292 329 320 318 345 326 304 301 297 287 275 289 310 290 274 274 273
38 75 32 20 14 13 21 38 19 357 41 82 80 105 186 210 165 162 201 60 146 137 110 104 43 74 200 290 319 324 346 313 4 55 42 14 144 179 41 273 274 25 131 127 135 290 87 274 297 17 31 299 242 232 321 242 160 67 55 207 190 102 86 93 50 353 32 8 283 327 303 296 337 323 313 325 295 284 279 275 282 286 289 287 273 273 276 272
38 121 46 14 7 9 19 16 355 12 67 74 77 143 163 188 142 147 199 36 124 93 88 136 162 79 193 166 280 295 334 333 350 46 85 306 79 160 160 272 235 2 319 69 87 357 72 298 306 20 179 304 340 48 331 317 37 100 116 188 116 88 26 24 64 16 8 328 296 314 306 274 221 236 274 250 243 258 267 276 288 277 268 266 270 278 283 285
20 80 37 4 3 12 16 356 342 43 70 80 108 171 150 159 263 255 177 111 104 110 98 176 158 65 181 166 176 274 343 34 58 56 118 145 33 158 150 216 212 356 335 45 99 249 106 80 290 282 243 304 350 47 312 307 327 26 40 355 17 109 141 36 66 110 96 319 304 321 328 283 231 219 195 205 228 237 251 270 267 253 252 255 260 270 280 284
33 56 311 355 4 4 6 17 40 51 64 106 160 174 74 158 264 285 207 188 145 153 163 177 150 110 187 212 221 208 31 97 135 101 177 177 107 161 74 37 177 315 335 32 72 248 12 89 259 296 333 306 310 20 191 205 297 359 30 16 12 67 89 72 31 92 119 132 225 325 315 279 253 214 183 208 236 228 220 234 247 249 250 252 256 264 271 273
51 49 269 354 4 342 0 38 45 50 84 110 119 132 87 143 174 334 300 233 136 220 197 151 140 136 162 185 223 192 84 73 121 118 202 201 135 153 356 114 179 265 333 34 49 14 344 96 230 295 332 275 242 275 208 181 228 220 113 122 140 120 83 71 336 320 79 135 169 161 284 277 263 209 199 220 236 232 223 221 243 259 258 261 268 267 265 267
69 57 272 350 357 348 48 55 30 45 95 109 73 121 82 97 110 19 337 30 118 244 65 102 111 115 140 145 152 168 126 97 142 112 186 216 182 186 193 135 179 195 115 89 327 256 145 91 50 273 269 249 269 290 61 145 200 166 194 209 127 121 109 115 219 265 119 110 135 114 263 273 262 212 215 240 248 253 246 227 246 266 265 266 275 279 278 273
93 183 273 351 350 0 81 62 356 28 56 260 302 2 22 70 117 106 340 8 171 241 42 59 80 79 145 174 125 141 163 170 179 163 207 229 213 207 219 65 206 171 91 119 255 263 94 69 10 292 295 318 311 316 22 43 57 139 250 231 142 137 128 139 172 179 155 184 152 104 263 268 270 243 221 238 254 275 272 244 248 269 278 277 280 286 287 282
131 224 257 354 354 31 111 100 143 84 41 258 42 18 345 59 115 109 192 250 218 149 115 126 185 92 147 124 96 136 205 169 170 202 193 189 201 324 1 3 286 153 116 195 174 177 255 88 58 0 348 345 344 348 344 345 353 233 247 221 162 117 101 108 114 76 290 218 160 140 243 254 270 303 288 274 289 291 276 251 233 248 271 282 284 287 285 283
59 217 263 354 21 66 112 159 145 136 166 129 97 106 79 52 41 149 175 211 242 165 138 132 118 95 103 86 71 77 15 42 170 307 86 179 247 332 5 348 326 165 212 245 139 139 207 177 121 99 54 308 299 299 286 279 271 253 232 203 193 142 129 141 94 81 261 241 158 169 233 259 283 295 291 288 298 292 283 282 267 252 263 276 282 288 290 291
72 76 293 339 23 55 72 111 105 118 160 143 116 163 135 93 304 262 131 132 265 151 85 27 114 90 87 104 82 57 340 347 41 97 179 202 248 271 313 349 27 162 205 202 91 89 106 197 200 171 185 210 224 236 217 145 195 243 228 207 200 184 152 121 104 160 202 188 193 228 244 284 291 283 282 289 286 278 281 291 294 287 287 289 291 294 295 294
89 135 146 326 352 36 49 30 63 102 156 148 129 160 152 141 280 338 147 229 255 129 45 27 140 147 165 161 130 129 264 346 8 79 195 200 225 291 303 30 63 357 311 132 109 92 91 283 232 191 222 238 242 250 222 138 231 235 229 216 199 193 165 148 188 205 156 122 254 252 231 254 273 277 286 292 285 278 278 281 284 288 291 293 296 299 299 297
53 164 151 136 286 73 64 47 89 96 98 101 95 120 139 146 168 176 191 298 21 168 153 14 248 211 187 173 153 151 145 2 324 240 186 166 173 3 348 346 30 346 8 34 339 105 122 259 236 187 252 265 261 263 243 211 244 240 232 229 210 192 185 198 218 200 155 196 248 254 182 231 261 275 281 280 277 276 276 275 277 282 283 283 289 294 294 295
69 110 59 6 113 170 164 79 106 99 90 90 88 131 158 169 191 205 168 92 1 278 188 214 254 229 192 176 135 137 182 191 241 238 193 162 173 134 52 244 230 2 41 75 335 66 141 246 240 165 292 280 269 270 246 220 252 261 248 235 215 205 204 213 228 210 193 233 254 263 269 267 269 270 272 276 279 279 278 279 278 275 274 276 283 286 285 286
131 150 189 51 65 123 72 54 91 93 73 79 120 172 169 171 188 210 170 144 162 235 191 211 237 209 176 168 141 174 210 183 162 224 179 153 183 193 199 202 159 60 30 122 321 336 249 265 258 72 330 286 283 310 268 203 227 260 265 247 209 211 221 224 235 224 215 244 257 265 275 275 270 264 265 275 282 288 286 281 275 267 264 270 275 275 276 279
112 132 139 105 74 340 346 36 91 106 100 197 171 174 187 196 195 184 179 181 167 171 187 196 194 147 117 157 191 229 225 180 166 216 178 157 175 197 206 186 147 138 154 172 158 49 162 259 21 59 352 283 298 358 337 288 259 263 274 262 212 199 212 220 223 207 202 223 241 253 256 258 263 268 267 268 271 275 272 269 271 272 265 261 263 266 271 274
110 49 69 102 89 321 138 66 56 115 196 230 178 169 201 226 204 170 154 233 176 175 190 179 153 112 102 184 221 234 216 182 180 191 157 126 86 86 84 96 119 134 164 163 142 143 147 149 138 93 297 273 290 335 325 321 319 275 268 250 194 190 209 234 240 220 208 201 195 214 231 246 266 275 251 264 267 262 262 258 256 267 271 264 261 265 270 271
Height
840 839 839 839 839 840 839 839 839 838 838 837 837 836 835 834 834 833 833 832 830 829 827 827 826 826 826 826 826 825 824 822 818 818 822 832 834 829 826 823 822 820 818 817 814 813 813 812 813 810 809 814 822 826 826 831 834 836 851 863 872 881 881 880 881 880 879 881 882 880 880 880 880 879 877 878 879 881 882 881 880 879 878 878 877 875 875 874
840 840 840 841 841 841 840 840 839 839 839 838 838 837 836 835 834 834 833 831 830 828 827 826 825 826 826 826 826 824 825 821 817 820 827 832 829 826 825 823 822 821 820 818 816 814 814 816 816 812 814 823 830 830 830 837 841 849 862 868 876 883 881 880 880 878 879 880 880 880 880 879 879 879 877 879 882 883 881 881 881 880 878 877 875 875 874 874
842 842 842 842 842 842 841 841 840 840 839 838 838 836 835 834 834 833 832 831 830 829 827 824 824 825 825 826 825 824 824 820 819 826 831 831 828 826 825 824 823 821 820 819 818 816 816 820 818 816 821 830 837 835 836 842 848 858 864 869 880 881 879 882 879 878 878 878 879 879 879 878 878 878 877 879 883 883 881 881 881 880 878 876 875 874 873 873
844 844 844 844 843 843 842 841 840 840 839 838 837 836 835 834 833 832 832 831 830 830 828 825 823 824 825 825 825 825 823 823 831 838 837 833 830 828 827 826 824 821 821 819 819 818 818 820 819 819 825 836 843 840 845 851 851 862 867 871 880 879 878 881 879 878 878 877 878 878 879 878 877 877 878 880 881 881 881 881 880 879 877 876 874 873 872 872
845 845 845 844 844 843 842 841 840 839 838 838 836 835 835 834 834 833 833 832 830 830 829 827 825 824 825 824 825 825 825 834 844 843 839 836 833 831 829 827 824 822 820 819 819 819 819 821 820 824 833 844 846 843 854 859 855 867 876 876 879 878 878 880 879 879 878 878 878 878 879 878 878 878 879 880 879 878 879 878 878 877 876 875 874 873 872 871
845 845 845 844 843 842 841 840 839 839 838 838 837 837 836 836 835 835 834 833 831 830 830 830 828 827 826 826 827 825 830 846 851 844 842 839 836 834 831 828 826 823 820 819 819 819 822 823 823 832 844 854 854 853 862 863 859 868 878 880 879 878 877 879 879 878 878 877 877 879 879 879 879 879 881 880 878 877 877 876 876 876 875 874 874 872 871 871
846 845 844 843 842 841 841 840 840 840 840 839 839 838 838 838 837 837 836 834 832 831 831 831 830 830 830 828 828 829 837 851 851 846 844 841 838 835 832 829 826 823 820 820 821 823 827 826 829 840 849 854 860 863 865 865 864 869 877 881 880 878 878 879 879 878 878 877 878 880 879 879 879 879 881 879 877 877 876 875 875 874 874 874 873 872 870 870
846 845 844 843 843 842 842 841 841 841 840 840 840 839 839 839 838 837 836 835 832 831 831 831 831 831 831 831 830 834 845 853 851 847 845 842 840 836 832 829 827 823 821 824 826 827 829 830 835 842 849 856 859 863 864 864 868 872 877 881 880 879 879 879 879 878 878 878 879 879 878 879 879 880 880 878 877 876 876 875 875 874 874 874 872 871 870 869
846 846 845 844 844 843 843 842 842 841 841 841 840 840 839 839 838 837 836 836 834 832 832 831 832 831 830 832 831 838 852 855 852 848 845 843 840 837 833 830 828 825 823 828 828 827 830 834 838 840 848 859 860 863 864 863 868 874 878 879 879 880 880 879 879 878 878 878 879 878 879 880 880 881 878 876 876 876 876 875 874 875 874 873 871 870 869 868
847 846 846 845 844 844 843 842 842 841 841 840 840 840 839 839 839 838 837 837 837 835 834 833 833 832 832 832 832 845 858 855 851 849 846 844 841 838 834 832 831 827 828 831 831 831 832 834 838 840 845 856 862 865 864 864 870 875 878 879 880 880 881 880 879 879 879 879 879 879 879 880 880 881 877 875 875 875 875 874 874 874 873 872 871 869 868 867
847 847 846 846 845 844 843 842 842 841 841 841 841 841 840 841 840 840 839 838 839 837 836 836 835 834 833 832 838 854 859 853 852 849 847 845 842 839 836 835 834 831 832 834 835 837 837 838 839 840 847 856 862 866 868 869 873 877 877 879 882 881 880 881 880 879 880 880 880 880 880 881 881 880 876 874 875 875 875 874 873 873 872 871 870 869 868 867
848 848 847 846 845 845 844 843 843 843 843 843 843 843 842 842 842 841 841 840 839 837 836 835 835 836 833 835 847 858 856 853 853 849 848 847 843 842 840 839 838 837 837 837 839 840 839 841 838 841 851 858 865 869 872 874 875 877 876 878 883 882 880 881 881 880 880 879 880 880 879 879 880 877 873 873 874 875 875 874 873 872 871 871 870 869 868 867
849 848 848 847 846 845 844 844 844 844 845 844 844 844 843 843 842 842 841 840 839 838 836 834 835 836 833 843 856 857 855 855 852 850 850 847 845 844 843 843 841 841 841 839 842 842 841 842 839 845 854 860 867 870 870 874 875 877 878 879 882 882 881 882 881 882 881 879 880 880 877 875 875 873 872 874 874 874 874 873 872 871 871 870 870 869 868 867
849 849 848 847 846 845 845 845 844 845 845 845 844 843 844 843 842 842 841 840 839 838 837 835 836 835 837 851 859 855 856 855 852 851 849 848 847 846 845 845 844 844 844 843 845 845 845 844 840 848 858 863 868 868 872 877 876 879 880 881 885 881 880 882 882 883 881 879 880 881 877 872 872 871 871 874 873 874 873 871 871 870 870 870 869 869 867 867
849 849 848 847 846 845 845 845 845 846 845 845 844 843 843 842 842 841 840 840 839 839 839 837 836 836 843 855 858 856 856 853 852 852 850 850 848 847 847 846 846 846 845 846 846 847 847 844 845 856 865 866 868 870 875 878 878 882 879 878 887 884 880 882 882 884 882 881 882 881 877 873 872 870 870 873 873 874 873 870 870 870 870 869 868 868 867 867
850 849 848 847 846 846 846 846 846 845 845 845 844 843 842 841 841 841 841 840 839 839 838 839 838 837 847 857 857 856 856 855 854 853 852 851 849 849 848 846 848 847 847 848 848 849 847 846 856 867 871 873 878 878 876 876 877 884 882 879 885 884 883 883 881 885 886 882 882 880 878 874 870 869 871 874 873 873 873 870 869 869 869 868 867 867 867 867
850 849 848 847 847 847 846 846 846 845 845 845 845 845 842 841 841 840 841 840 840 841 839 841 840 838 849 859 859 858 859 858 856 854 853 851 851 850 848 848 848 847 848 847 847 849 849 855 866 872 878 885 891 883 868 869 875 882 886 884 886 888 886 883 881 884 885 882 881 881 881 874 868 870 872 873 873 872 872 870 869 868 868 867 867 867 867 867
851 849 848 847 847 847 846 846 846 845 846 845 845 846 844 843 842 841 842 840 840 840 839 843 839 843 858 863 863 863 861 859 857 855 853 852 851 850 849 849 849 848 849 849 851 854 855 863 870 873 883 892 899 890 869 874 886 888 891 888 889 892 887 885 884 884 885 883 882 881 880 874 870 871 872 872 873 872 871 869 868 868 867 867 867 867 866 866
850 849 848 847 847 846 846 846 845 845 845 845 845 845 845 845 843 843 844 842 845 848 853 857 852 858 868 867 865 864 861 860 858 856 854 853 852 851 851 851 851 851 852 854 858 864 864 868 873 879 892 899 906 907 892 893 900 898 901 898 895 894 888 888 887 886 888 884 879 879 879 876 872 870 869 870 872 872 870 870 869 867 867 866 866 867 866 866
850 850 848 847 846 845 846 846 845 845 845 845 845 845 846 847 849 854 854 851 858 865 867 869 866 868 870 868 866 863 860 860 858 857 855 853 852 852 852 853 854 855 862 867 866 871 872 877 891 898 904 907 908 913 910 908 908 904 904 900 898 897 888 887 888 888 890 883 877 881 881 878 874 870 870 870 871 872 870 869 868 866 865 865 866 866 866 866
851 849 849 848 847 846 846 845 845 844 844 845 844 845 849 850 852 859 862 863 869 870 869 870 870 869 869 869 867 864 863 860 858 857 856 855 853 853 857 859 856 860 874 878 873 875 875 884 902 906 907 911 910 913 912 908 907 903 900 895 894 898 892 887 890 890 892 886 880 884 883 875 874 872 870 871 869 868 868 867 866 865 865 865 866 865 865 865
851 850 849 849 848 847 847 846 845 844 844 844 844 848 852 852 852 855 858 865 872 871 870 871 870 870 870 869 868 867 866 863 860 859 858 856 854 856 865 868 868 873 880 878 873 875 882 895 905 907 910 912 909 912 909 903 902 899 896 892 890 898 896 888 890 891 893 890 880 883 885 875 873 872 869 870 869 866 866 866 864 863 863 864 864 864 864 864
851 850 850 849 849 848 848 848 847 847 847 846 847 850 852 853 854 854 854 861 870 872 872 871 871 872 870 868 869 868 867 870 869 866 863 860 861 865 870 874 877 882 884 880 874 874 886 901 907 908 910 906 904 909 906 898 900 901 896 892 893 903 900 888 887 892 896 896 888 888 887 875 870 869 866 868 870 867 866 866 866 865 863 863 864 864 864 864
851 851 850 850 850 849 849 849 848 849 849 849 850 851 854 854 854 855 856 862 869 872 873 873 873 873 872 871 871 869 870 874 875 872 868 865 868 871 874 879 881 886 894 893 887 887 895 905 908 908 907 904 901 905 905 896 896 904 903 898 901 908 908 900 899 901 897 895 895 889 876 868 870 868 864 867 869 867 867 867 866 865 865 865 865 864 865 864
852 851 850 850 850 850 849 849 849 850 851 851 852 853 854 854 855 854 856 863 870 872 872 873 873 873 873 872 871 872 873 874 876 875 871 870 871 873 878 883 881 887 899 898 894 897 903 908 908 904 903 904 900 901 908 903 894 899 905 908 909 911 912 910 908 903 885 879 895 892 869 863 872 870 866 867 868 866 867 868 864 863 865 865 864 863 863 864
852 851 851 850 850 850 849 850 851 851 852 853 854 854 854 854 856 854 855 865 875 878 875 872 874 874 873 873 873 873 873 874 877 875 873 873 873 873 877 884 886 889 898 900 896 898 903 908 909 904 901 901 899 900 909 910 897 893 904 912 914 914 913 911 909 898 879 877 895 896 877 870 870 866 869 872 870 867 865 864 861 862 863 862 863 862 862 862
852 852 851 850 850 849 849 850 851 851 852 853 854 854 855 855 855 854 858 871 882 884 880 875 876 876 875 876 875 873 876 877 876 875 876 875 874 874 875 885 889 891 902 900 891 897 902 902 904 904 901 897 896 898 907 912 900 894 907 914 912 912 910 912 910 898 893 893 895 895 891 885 874 865 870 875 870 866 864 861 860 861 862 861 862 862 862 862
853 852 851 850 850 849 850 850 850 852 852 853 854 854 855 855 855 855 860 878 889 887 883 879 876 877 877 876 876 877 880 881 878 877 878 876 876 875 878 890 893 895 905 895 885 900 906 900 903 904 900 896 897 901 907 911 903 900 912 914 912 913 910 915 910 901 905 897 883 891 897 886 873 867 871 874 869 865 863 861 860 860 860 860 861 861 862 861
854 853 851 851 850 850 850 850 850 851 852 853 853 854 855 853 855 856 863 882 892 887 886 882 876 879 882 878 880 883 882 882 884 882 880 879 879 878 883 893 894 893 900 893 888 902 908 905 908 907 903 900 901 906 909 909 906 909 915 914 914 914 912 915 909 901 902 887 876 891 896 883 871 865 868 871 867 863 862 862 861 861 861 860 860 860 859 859
855 853 852 851 850 850 850 850 851 852 852 853 853 854 854 853 857 864 874 887 892 888 887 883 882 888 887 880 881 888 887 886 889 886 882 884 883 883 889 892 891 891 895 897 898 906 911 911 912 910 906 906 907 909 912 911 910 912 914 912 910 910 910 912 912 906 889 873 880 894 896 888 875 862 863 865 862 859 859 861 861 859 860 858 858 858 857 856
855 854 852 851 850 850 850 851 851 852 852 853 853 853 853 856 862 871 884 892 892 890 889 889 893 895 894 890 889 892 891 889 892 888 886 891 891 890 892 891 891 889 890 895 900 906 910 907 909 910 908 911 910 908 914 916 914 913 912 909 898 893 898 896 899 898 876 866 885 898 898 896 880 860 857 858 859 860 859 858 858 857 857 856 855 855 854 853
856 854 853 851 851 850 850 850 852 852 853 852 853 853 854 862 871 881 892 893 891 894 894 896 899 899 900 899 898 901 898 893 895 896 897 901 904 907 905 904 904 892 885 895 898 900 904 905 909 909 909 914 908 900 904 910 913 909 907 903 883 873 878 874 878 887 877 873 891 902 899 893 877 858 852 854 855 858 858 856 856 856 855 854 853 852 851 852
857 856 854 852 852 851 851 852 852 852 852 853 853 854 857 865 880 896 899 892 893 900 902 902 902 904 902 896 898 906 904 898 898 900 905 905 905 912 915 918 919 902 892 901 901 894 896 902 908 905 905 911 907 898 894 898 902 900 901 897 878 874 877 874 883 891 881 878 894 908 900 881 867 856 851 853 852 855 858 856 856 856 855 854 852 852 851 850
857 856 855 854 853 852 852 852 852 853 853 853 853 855 861 871 889 903 899 895 902 905 905 906 903 901 901 897 903 908 901 899 902 901 901 901 899 905 908 913 919 912 905 905 905 902 893 892 902 904 904 908 910 909 906 906 904 902 910 902 884 888 888 882 887 885 881 887 894 901 889 867 860 856 854 857 857 859 860 858 859 857 856 856 854 853 850 848
857 857 856 854 853 852 853 852 853 853 851 852 855 859 866 878 892 895 892 897 904 902 904 910 903 895 898 903 907 910 903 899 903 903 900 903 906 910 910 912 918 920 911 899 904 911 899 893 906 912 911 911 910 914 918 914 903 904 914 902 891 902 901 898 906 904 907 907 892 886 875 861 862 859 859 862 859 859 858 856 858 855 854 856 853 850 847 845
857 857 855 854 854 853 853 852 853 852 852 853 856 863 875 885 890 891 893 898 901 899 899 903 900 893 896 901 903 907 908 903 902 902 903 911 916 916 917 918 922 924 915 904 907 910 898 895 910 914 911 915 914 915 919 912 899 900 905 899 905 919 910 904 914 924 928 906 882 882 873 860 860 857 858 861 855 855 856 853 854 852 852 854 849 846 845 844
856 856 856 855 855 853 853 853 853 852 852 853 857 873 891 896 898 902 904 905 903 902 896 892 898 900 896 898 899 902 904 904 903 900 903 912 913 914 918 919 923 925 922 917 913 914 908 898 907 913 906 912 920 917 916 917 911 901 897 902 914 919 914 908 905 909 912 892 877 884 880 867 861 853 856 861 855 852 852 850 852 851 850 850 846 844 842 841
856 856 856 856 855 854 854 853 852 852 853 858 871 889 900 902 906 912 912 909 905 902 895 889 899 908 902 896 898 903 903 899 900 901 904 908 909 914 919 918 922 926 927 923 914 918 919 900 901 915 910 911 921 914 906 913 918 908 902 909 911 902 902 907 903 899 901 896 886 885 887 880 866 854 852 854 852 848 847 848 849 848 847 845 844 842 840 840
856 856 856 857 856 855 854 852 854 853 851 861 877 890 900 905 911 916 914 913 908 900 893 893 901 909 909 902 898 904 906 900 901 904 904 905 908 915 921 919 921 924 926 925 916 919 924 904 896 911 917 914 913 907 900 902 911 912 909 912 910 906 908 910 912 911 906 904 900 890 880 864 854 855 851 846 848 846 844 846 845 843 844 843 842 841 840 839
856 856 857 858 855 855 856 852 854 854 858 875 888 894 904 909 911 916 916 913 910 901 895 897 900 902 906 910 907 907 908 905 905 906 905 909 910 913 922 923 921 923 925 925 922 922 923 910 898 905 916 913 905 907 910 907 909 907 903 905 905 912 921 916 919 926 915 908 912 910 887 855 848 857 851 844 847 844 843 844 842 842 842 841 842 841 840 839
856 857 858 858 856 857 854 854 867 877 880 893 901 903 909 909 908 914 916 914 913 908 905 903 900 899 901 905 906 908 908 905 907 907 905 910 908 908 922 928 924 924 922 918 920 921 918 914 907 901 902 901 906 923 930 926 926 918 907 905 902 907 914 905 909 930 930 916 914 919 902 864 849 856 852 847 846 843 844 844 840 841 841 840 841 840 840 838
858 859 859 858 857 856 854 865 890 900 892 896 904 907 909 910 909 911 913 914 912 910 909 906 904 905 905 904 907 911 909 903 905 906 904 909 910 911 923 931 929 927 921 916 922 927 923 919 912 902 905 913 920 933 937 932 935 932 923 919 913 911 909 899 900 915 926 928 928 933 917 869 845 854 855 850 849 846 847 847 844 843 841 841 841 839 839 837
860 860 859 858 857 857 857 870 893 903 902 908 914 913 912 912 910 910 911 911 909 907 905 905 907 906 907 910 910 910 909 903 903 908 907 909 915 921 928 931 928 926 922 918 921 927 924 919 910 901 909 923 928 933 937 937 935 925 920 924 919 911 909 908 910 912 917 925 926 929 912 863 840 853 855 851 854 852 850 851 848 844 842 842 841 839 837 835
865 863 860 859 856 855 857 865 879 896 909 913 912 911 913 914 912 909 908 907 908 907 902 904 910 907 911 918 913 911 915 905 900 910 913 910 917 927 932 931 928 926 922 918 920 923 917 913 912 902 897 903 907 912 917 924 927 917 912 922 920 915 915 916 921 922 915 914 913 909 892 855 840 850 849 847 851 847 845 849 849 846 843 841 840 839 837 835
865 863 863 861 858 857 864 870 874 887 905 906 903 906 907 909 914 913 910 911 913 912 904 905 911 910 915 921 916 919 925 913 903 910 915 914 921 930 932 930 929 927 926 927 928 924 917 914 912 903 897 895 891 892 896 903 913 914 913 919 918 915 913 908 916 920 909 912 919 901 873 849 841 845 844 844 847 844 841 843 845 845 842 840 840 837 835 835
864 863 863 862 862 864 875 884 881 882 894 894 893 902 903 901 911 917 914 911 913 915 910 908 913 911 912 915 909 911 922 922 917 913 910 911 919 929 932 930 930 929 928 930 931 927 922 919 914 903 899 896 888 890 901 906 906 905 908 914 914 915 914 910 915 913 905 914 916 890 870 859 846 841 843 845 846 845 843 841 841 841 839 837 837 835 834 834
866 866 868 865 865 868 874 883 883 880 884 883 882 894 899 899 906 913 913 912 913 915 912 911 912 905 902 905 902 903 915 922 920 913 909 912 920 929 932 930 930 931 930 930 930 927 918 911 913 910 902 898 896 898 907 911 906 903 904 906 908 912 916 913 906 901 904 908 894 876 880 877 854 842 845 846 845 844 843 841 839 839 838 836 836 835 833 831
868 871 878 874 869 870 871 876 882 881 882 885 888 894 896 897 899 899 904 913 915 913 907 904 906 903 899 900 896 898 910 913 909 909 911 915 921 925 926 928 931 931 931 930 929 928 917 907 914 918 907 903 905 906 911 914 911 908 906 905 906 909 912 907 898 898 901 892 873 869 880 875 857 848 846 842 842 842 841 840 840 839 838 837 836 835 832 829
872 873 881 880 875 878 881 883 885 881 880 885 889 892 892 889 890 894 903 909 907 911 907 895 893 899 902 902 897 895 901 899 896 903 909 912 918 918 915 917 926 933 932 927 929 930 920 909 916 922 913 904 904 906 912 915 911 906 903 903 905 906 905 901 895 897 898 886 873 873 879 871 855 847 844 838 837 841 841 840 840 838 836 835 834 833 830 828
871 870 875 877 878 884 888 887 885 878 880 885 882 886 891 886 885 894 902 897 890 901 908 894 888 899 904 904 899 893 894 892 890 896 903 905 909 912 907 904 915 931 933 927 929 932 921 912 919 925 913 901 903 908 910 912 911 904 894 896 903 905 904 904 900 899 900 893 883 882 888 877 851 839 843 840 837 840 839 835 835 834 833 833 831 830 828 825
870 870 872 871 875 884 885 885 885 877 877 880 877 882 888 883 883 888 892 893 889 892 897 891 888 900 909 908 901 893 895 898 895 896 900 899 900 904 904 903 908 919 927 928 929 928 923 918 922 924 909 896 903 907 902 904 909 900 883 881 892 899 898 897 896 893 890 885 884 889 888 867 842 836 841 838 836 838 834 830 830 828 828 830 828 826 825 822
871 871 872 869 872 884 885 883 885 878 873 876 877 882 884 882 887 887 882 891 897 894 895 895 892 897 903 903 899 895 898 902 902 904 906 906 907 908 909 910 910 910 918 926 927 927 926 917 916 919 906 894 902 909 903 899 888 870 858 859 872 886 889 887 886 884 882 877 875 872 859 841 833 837 838 833 832 833 829 826 826 824 824 826 824 823 821 818